Regional Weather Roundup
Issued by NWS State College, PA

Home | Current Version | Previous Version | Graphics & Text | Print | Product List | Glossary Off
Versions: 1 2 3 4 5 6 7 8 9 10 11 12 13 14 15 16 17 18 19 20 21 22 23 24 25 26 27 28 29 30 31 32 33 34 35 36 37 38 39 40 41 42 43 44 45 46 47 48 49 50

000
ASUS41 KCTP 270710
RWRCTP

REGIONAL WEATHER ROUNDUP
NATIONAL WEATHER SERVICE STATE COLLEGE PA
300 AM EDT WED AUG 27 2014

Note: "fair" indicates few or no clouds below 12,000 feet with no
significant weather and/or obstructions to visibility.

* = STATION THAT DOES NOT REPORT PRECIPITATION /E.G. RAIN...SNOW...ETC/
    THUNDER OR FOG.

PAZ002>004-007>009-013>016-020>023-029>032-270800-
WESTERN PENNSYLVANIA

CITY           SKY/WX    TMP DP  RH WIND       PRES   REMARKS
ERIE           CLEAR     75  67  76 W7        30.06R
MEADVILLE      PTCLDY    70  66  87 W5        30.10S
FRANKLIN*      PTCLDY    68  63  83 SW6       30.11F
NEW CASTLE     FAIR      67  66  96 CALM      30.10F FOG
BEAVER COUNTY  NOT AVBL
BUTLER*        CLEAR     64  63  94 CALM      30.12S
PITTSBURGH INT CLEAR     68  63  84 CALM      30.10S
PITTSBURGH     CLEAR     67  61  81 S3        30.10S
INDIANA*       MOCLDY    63  61  94 CALM      30.15S
LATROBE        CLEAR     63  63 100 CALM      30.12R
WASHINGTON CO* CLEAR     61  59  94 CALM      30.11S
$$

PAZ004>006-010>012-017>019-024>028-033>037-041-042-045-046-049>053-270800-
CENTRAL PENNSYLVANIA

CITY           SKY/WX    TMP DP  RH WIND       PRES   REMARKS
BRADFORD       PTCLDY    67  61  81 VRB3      30.11S
DUBOIS         CLEAR     64  60  87 W3        30.11S
CLEARFIELD     CLEAR     60  59  96 S3        30.11S
JOHNSTOWN      CLEAR     62  52  69 SW7       30.14R
ALTOONA        CLEAR     61  59  93 S3        30.12R
STATE COLLEGE  CLEAR     63  59  87 SW3       30.10S
WILLIAMSPORT   CLEAR     63  60  90 N5        30.06S
SELINSGROVE    CLEAR     59  58  96 CALM      30.07F FOG
FT INDIANTOWN  CLEAR     60  60 100 NE3       30.08R
CAPITAL CITY   CLEAR     63  61  93 W3        30.07S
HARRISBURG     PTCLDY    67  62  84 E3        30.05F
YORK           CLEAR     58  57  97 CALM      30.06F FOG
$$

PAZ038>040-043-044-047-048-054-055-060>062-067>071-270800-
EASTERN PENNSYLVANIA

CITY           SKY/WX    TMP DP  RH WIND       PRES   REMARKS
SCRANTON       CLEAR     63  58  83 SE3       30.07F
MOUNT POCONO   CLEAR     61  57  87 NW5       30.11F
ALLENTOWN      CLEAR     64  61  90 CALM      30.06F
QUAKERTOWN*    SUNNY     64  63  94 CALM      30.08S
READING        CLEAR     68  61  78 NW5       30.06S
LANCASTER      CLEAR     63  60  90 NE3       30.06F
COATESVILLE    SUNNY     63  63 100 CALM      30.08F
POTTSTOWN      CLEAR     63  61  93 CALM      30.07F
BLUE BELL      CLEAR     63  61  94 CALM      30.06F
DOYLESTOWN     CLEAR     65  64  97 CALM      30.06F
WILLOW GROVE   NOT AVBL
NORTH PHILA    CLEAR     69  61  75 W3        30.07F
PHILADELPHIA   CLEAR     70  63  78 SW5       30.06F
$$


USA.gov is the U.S. government's official web portal to all federal, state and local government web resources and services.